Dewpoint
71 71 73 74 75 75 76 77 77 77 76 77 77 77 77 77 77 77 77 77 77 77 76 76 76 76 76 76 76 76 76 76 76 76 76 75 75 75 75 75 75 75 74 74 74 74 74 74 74 75 75 75 74 74 74 74 74 75 75 74 74 74 74 73 73 74 73 72 73 73 73 73 73 74 74 74 74 74 74 75 75 74 74 75 75
71 72 73 74 75 76 76 77 76 76 77 77 77 77 77 77 77 77 77 77 77 77 77 76 76 76 76 76 76 76 76 76 75 75 75 76 75 75 75 75 75 74 74 74 74 74 74 74 74 74 74 74 74 74 74 74 74 74 74 74 74 74 74 74 73 73 73 74 74 73 73 74 74 74 73 74 74 74 75 76 76 74 74 75 75
72 73 73 74 75 76 76 76 76 76 77 77 77 76 76 76 76 76 76 76 77 77 77 76 76 76 76 76 76 76 76 76 76 76 76 75 75 75 75 75 74 74 74 75 74 74 74 74 74 74 74 74 74 74 74 73 74 74 74 74 74 74 74 74 73 73 73 73 73 73 74 74 74 74 73 74 74 74 74 76 76 75 74 74 74
73 73 73 74 75 76 75 76 76 76 77 76 76 76 76 76 76 76 76 76 76 76 76 76 76 76 76 76 76 76 76 76 76 76 75 75 75 75 75 74 75 74 74 74 74 74 74 74 74 74 73 73 73 73 73 73 74 74 74 74 74 73 73 74 73 73 73 73 74 74 75 73 73 74 74 73 74 74 75 75 75 75 74 74 74
73 73 74 75 75 76 76 75 76 76 76 76 76 76 76 76 76 76 76 76 76 76 76 76 76 76 76 75 75 75 76 76 75 75 75 75 75 75 75 75 74 74 74 74 74 74 74 74 73 74 74 73 73 73 73 73 74 75 74 75 74 74 74 73 74 74 74 74 75 74 72 72 72 73 73 74 74 75 74 74 74 74 75 75 75
73 74 74 75 75 76 76 76 76 76 76 76 76 76 76 76 76 76 76 76 76 76 76 76 76 75 76 75 75 75 75 75 75 75 75 75 75 74 74 74 74 74 74 74 74 74 74 74 74 74 73 73 73 72 72 73 73 73 74 74 73 74 73 73 74 74 75 75 75 73 72 72 73 73 74 74 75 75 74 74 74 74 74 75 75
74 74 75 75 75 76 76 76 76 76 76 76 76 76 76 76 76 76 76 76 76 76 75 75 75 75 76 74 74 75 74 75 75 75 74 75 74 74 74 74 74 74 74 74 74 74 74 73 73 74 73 73 72 72 73 74 74 74 73 74 74 74 74 74 74 74 75 74 72 72 72 72 72 72 74 74 75 75 74 74 74 73 74 74 75
74 75 75 75 75 76 76 76 76 76 76 76 76 76 76 76 76 76 76 76 76 75 75 75 75 75 75 75 75 75 75 75 75 75 75 75 75 74 74 74 74 74 75 74 74 74 74 74 73 74 74 73 73 72 72 73 73 73 73 73 74 74 74 74 74 75 75 72 72 72 72 72 72 72 74 74 74 74 74 74 74 74 74 74 74
74 75 75 75 76 77 76 76 76 76 76 76 76 76 76 76 76 76 76 76 76 75 75 75 75 74 74 75 75 75 75 75 75 75 75 75 75 75 75 75 75 75 75 75 75 74 73 73 73 73 74 74 73 72 73 73 73 74 73 73 73 73 73 74 74 75 73 73 72 72 72 72 72 72 73 74 74 74 74 73 74 74 74 74 74
75 75 75 75 76 77 76 76 76 76 75 76 76 76 76 76 76 76 76 75 75 75 75 75 75 75 74 75 75 75 75 75 75 74 75 75 75 75 75 75 75 75 75 75 75 74 74 73 74 73 74 74 73 73 74 73 73 73 73 73 73 73 73 74 75 75 72 72 72 73 74 75 72 72 73 74 74 74 74 74 74 74 74 74 74
75 75 75 75 76 76 76 76 76 76 76 76 76 76 76 76 76 76 75 75 75 75 75 75 75 74 75 75 75 74 74 75 75 75 74 75 75 75 75 75 75 75 75 74 74 74 75 74 74 73 73 73 73 73 73 74 74 74 73 73 74 74 73 75 74 72 72 72 72 73 73 75 72 72 74 74 74 74 74 74 74 74 74 74 73
75 75 75 75 76 76 77 76 76 76 76 76 76 76 76 76 75 76 75 75 75 75 75 75 75 75 75 75 74 74 74 75 75 75 75 75 75 75 75 75 75 75 75 74 74 74 75 74 74 73 73 73 73 73 74 73 74 74 73 73 73 73 73 75 73 73 73 73 73 73 73 73 72 73 74 74 73 74 74 74 74 74 74 73 73
74 75 75 76 76 76 76 76 76 76 76 76 76 76 76 75 75 75 75 75 75 75 75 75 75 75 75 75 75 75 75 75 75 75 75 75 75 75 75 75 74 74 75 74 73 74 74 75 75 74 73 73 72 74 74 74 74 74 73 74 73 73 74 74 72 73 72 72 73 72 73 72 73 74 74 74 74 74 73 73 74 74 73 73 74
74 75 75 75 75 76 76 76 76 76 76 76 76 75 75 75 75 75 75 75 75 75 75 75 74 74 75 75 75 75 75 75 75 75 75 75 75 75 75 74 74 74 74 75 75 75 75 75 75 74 73 73 73 74 74 74 74 73 73 73 73 73 74 75 74 73 73 73 74 73 73 73 73 74 73 74 74 74 74 73 74 73 73 73 74
75 75 75 75 75 75 77 76 75 76 76 76 76 75 75 75 75 75 75 75 75 75 75 75 75 75 75 75 75 75 75 75 75 75 75 75 75 75 75 75 75 75 75 75 75 75 74 75 75 74 74 73 73 74 75 75 74 74 73 73 73 73 75 73 73 73 73 74 73 73 72 72 74 74 73 74 74 74 74 74 74 73 73 74 74
75 75 75 75 75 76 75 75 76 76 76 76 75 75 75 75 75 76 75 75 75 75 75 75 75 76 75 76 76 75 75 75 75 75 75 75 75 75 75 75 75 76 76 76 75 75 75 75 75 74 75 74 74 74 74 75 74 74 73 73 74 74 75 75 73 72 72 72 73 74 72 73 74 73 74 73 73 73 74 74 73 73 73 74 74
75 75 75 75 75 75 74 74 75 76 76 75 75 75 75 75 75 75 75 75 75 76 75 75 75 75 75 75 75 75 75 75 75 75 75 75 75 75 75 75 76 76 76 76 75 75 75 74 74 74 75 74 74 73 74 74 75 74 74 73 73 74 75 75 72 72 72 74 74 73 72 72 74 73 73 73 73 73 73 74 74 74 73 73 73
75 75 75 75 75 75 74 74 75 75 75 75 75 75 75 75 75 75 75 76 76 76 76 76 76 76 75 75 75 75 75 75 75 75 75 75 75 75 75 76 76 76 76 75 75 75 75 74 75 75 75 75 74 74 74 75 75 74 73 73 73 73 75 75 72 72 73 75 72 74 73 74 74 73 73 73 73 73 73 73 74 73 73 73 73
74 75 75 74 75 74 74 74 75 75 75 75 75 75 75 76 75 76 76 76 76 76 76 76 76 76 75 75 75 75 75 75 75 75 75 75 75 75 76 76 75 75 75 75 74 74 75 75 74 75 75 75 75 75 75 75 75 74 74 73 73 73 74 74 73 72 74 73 72 72 72 75 74 73 73 73 73 74 74 73 73 73 73 73 74
74 74 74 74 75 74 74 74 75 75 75 75 75 75 76 75 75 76 76 76 76 75 75 75 76 76 75 75 75 75 75 75 75 75 75 75 75 75 76 75 74 73 74 75 75 74 75 75 74 74 74 74 74 74 74 75 73 73 73 73 73 73 74 72 73 72 72 72 73 72 74 75 73 73 73 73 73 73 73 74 73 72 73 73 73
74 74 74 74 74 74 74 74 75 75 75 75 75 75 75 75 75 76 76 76 75 75 75 76 76 76 76 76 76 75 75 75 75 75 76 76 76 76 76 75 74 74 74 74 74 75 75 75 74 74 74 74 74 74 74 73 73 73 73 72 73 72 72 72 72 73 72 73 75 72 75 75 74 73 73 73 73 73 74 74 74 73 72 73 74
73 73 74 74 74 74 75 75 75 75 75 76 76 76 76 76 75 75 75 75 75 75 75 75 76 75 76 76 75 76 74 74 75 76 76 76 76 76 76 76 76 75 74 74 74 73 74 74 75 75 75 75 75 74 75 77 73 73 73 73 73 72 72 72 72 72 73 72 74 74 75 74 73 73 73 72 73 73 74 74 74 74 73 73 72
72 73 73 74 74 74 75 75 75 75 75 75 76 76 76 75 75 75 76 76 76 76 75 76 74 74 75 75 76 75 74 75 76 77 77 77 77 76 75 75 75 75 75 75 74 73 73 74 74 74 74 75 76 73 73 73 74 75 74 74 71 71 71 71 72 73 73 73 72 74 75 73 73 73 73 73 73 73 73 73 73 73 73 73 72
72 72 73 74 74 74 74 75 75 75 75 75 75 75 75 75 75 75 75 75 75 75 74 74 73 73 74 74 75 75 75 74 77 76 76 76 75 76 76 75 75 75 75 78 76 75 73 73 73 74 78 77 73 73 73 72 73 73 73 73 71 71 71 71 72 72 72 73 72 74 74 73 73 73 73 73 73 73 73 73 73 73 73 73 73
72 72 73 73 73 74 74 75 75 75 75 75 75 75 75 75 74 74 74 74 74 74 73 73 73 73 73 74 74 75 75 74 75 75 74 74 74 74 74 74 73 74 78 73 73 74 75 74 73 75 73 75 74 72 73 72 74 73 73 73 71 70 70 72 72 72 72 72 72 75 74 73 73 73 73 72 73 73 73 73 73 73 73 73 73
72 71 72 72 73 73 74 74 75 75 75 75 75 76 76 75 74 74 74 74 74 73 74 73 73 73 73 74 75 75 74 74 74 73 73 73 73 73 72 73 72 74 76 73 73 73 73 72 73 74 73 73 72 72 72 74 72 72 72 73 72 70 70 71 71 72 72 72 73 75 74 73 73 73 73 73 72 73 73 73 73 73 73 73 73
71 71 71 72 73 73 73 74 74 74 74 75 75 76 75 75 74 74 74 74 73 73 73 73 73 73 73 74 74 74 73 74 73 73 73 73 73 73 73 73 73 73 75 73 73 73 73 73 72 73 73 72 72 72 73 72 72 72 72 72 72 70 70 71 71 72 72 72 74 75 74 74 73 73 73 73 73 73 73 73 72 72 73 73 73
71 70 71 72 73 72 73 73 74 74 74 74 75 75 74 75 75 76 75 75 74 73 73 73 73 72 73 73 75 73 74 74 74 73 73 73 73 73 73 73 73 73 75 73 73 73 72 72 72 72 72 72 72 72 72 72 72 72 72 71 72 70 70 71 71 71 72 72 73 75 75 74 73 73 73 73 73 73 73 72 73 72 72 72 73
70 70 70 71 72 72 72 73 73 74 73 74 74 75 74 74 74 75 74 76 74 74 73 73 73 73 73 73 75 73 74 74 74 74 74 74 73 73 73 73 73 73 74 73 72 72 71 71 71 71 71 71 71 71 72 71 70 70 71 71 71 70 70 71 71 71 72 72 74 74 75 74 73 73 73 73 73 73 73 73 73 73 72 72 72
69 70 70 71 71 71 71 72 72 73 73 73 74 74 74 74 74 74 74 76 74 74 73 73 74 74 73 73 74 73 73 74 74 74 74 73 73 73 73 73 73 73 73 72 73 72 71 71 71 71 72 71 71 71 71 71 71 71 69 69 71 70 70 70 71 71 72 73 74 75 75 75 74 73 73 73 73 73 73 73 73 73 73 72 72
69 69 70 70 71 70 70 71 72 74 73 73 73 73 73 73 73 73 74 74 74 74 74 73 74 74 73 74 73 74 73 74 74 74 73 73 73 73 72 72 73 73 73 72 73 72 72 71 71 71 70 71 71 72 72 70 70 69 70 68 70 70 70 71 71 71 72 73 73 74 74 75 74 74 73 73 73 73 73 73 73 73 73 72 72
68 68 69 70 70 69 69 70 71 73 73 72 72 72 72 72 72 72 73 73 74 73 72 73 74 73 74 74 73 73 75 74 74 73 73 73 73 73 72 72 73 73 74 73 73 73 72 72 72 72 72 72 71 70 70 69 69 69 69 67 69 70 70 71 71 71 72 73 73 72 73 74 75 74 74 73 73 73 74 73 73 73 73 73 72
68 68 69 70 69 69 69 69 70 72 72 71 71 70 71 71 71 71 72 72 72 72 71 72 73 73 74 74 73 72 75 74 74 74 76 73 73 73 73 74 73 74 74 74 74 72 73 73 72 73 71 70 70 70 72 70 69 70 69 67 68 70 70 70 70 71 72 73 73 72 72 74 74 75 74 74 74 73 74 73 73 73 73 73 73
67 68 69 69 69 69 69 68 70 71 72 71 70 69 70 70 71 70 71 72 71 71 72 72 73 73 73 73 72 72 74 74 74 73 74 73 73 73 73 73 74 74 74 73 72 72 71 71 71 71 74 72 69 69 70 70 68 68 67 67 69 70 70 70 70 70 72 73 73 73 73 73 73 73 74 74 74 74 74 73 73 73 73 73 73
68 67 68 69 70 69 68 67 70 70 72 71 70 68 69 70 70 70 70 71 71 70 70 71 72 73 73 73 72 73 74 74 74 73 74 73 73 72 72 73 73 74 73 73 72 72 71 70 72 70 70 71 71 71 70 69 68 67 67 69 69 70 70 70 70 71 71 72 73 73 73 73 73 73 74 73 74 75 75 74 73 73 74 74 73
67 67 68 69 69 68 68 66 69 69 70 71 70 69 68 69 70 71 69 70 71 70 70 70 72 72 72 72 72 73 73 73 73 73 73 73 73 73 73 73 74 75 74 74 73 72 71 71 72 70 69 69 71 71 70 66 68 67 67 68 69 71 69 69 70 70 71 72 73 73 73 73 73 72 75 73 73 74 75 74 74 74 74 74 74
67 67 68 68 68 68 69 66 67 69 70 70 70 69 68 68 69 70 70 70 70 70 70 70 72 72 72 72 72 73 72 73 73 73 73 73 73 73 73 73 75 74 74 74 74 74 73 72 73 74 70 68 71 70 68 67 66 65 66 68 68 70 68 69 70 70 72 72 72 73 73 72 73 76 74 73 73 73 74 75 74 74 74 74 74
66 66 67 68 67 67 67 66 67 68 69 69 70 70 69 68 68 70 72 70 70 70 70 71 72 72 72 72 73 74 73 72 73 73 73 73 73 73 73 74 74 73 73 74 74 73 73 73 73 73 73 70 69 68 67 66 66 65 66 67 67 68 68 69 70 73 71 71 71 72 73 73 74 74 74 73 73 73 73 74 74 74 74 74 74
66 66 67 67 67 67 67 66 67 68 69 69 70 70 70 69 69 69 70 70 70 70 70 71 72 72 72 72 73 74 74 73 73 74 73 74 74 73 73 74 74 73 74 73 73 73 73 72 71 70 72 71 69 68 66 66 65 65 66 66 67 66 67 68 71 70 70 71 71 72 73 72 73 73 73 73 73 72 72 72 72 72 73 74 74
66 66 67 67 67 67 67 66 67 68 69 69 70 70 70 69 68 69 70 70 70 70 71 71 72 72 72 72 73 73 74 74 73 74 73 74 74 74 73 74 73 73 74 72 72 72 72 72 71 70 69 71 71 69 66 65 65 65 66 65 65 66 66 69 69 69 70 70 71 72 71 72 72 72 73 73 73 73 73 72 73 72 73 73 74
66 66 66 66 66 66 67 66 66 68 68 69 70 69 69 69 69 68 68 69 69 69 70 71 72 72 72 72 73 73 73 74 74 74 73 75 74 74 73 74 73 74 74 73 73 72 72 72 72 73 69 68 68 67 64 63 62 61 63 63 64 67 69 69 68 68 68 69 70 71 71 72 71 72 72 72 72 72 72 72 72 72 73 72 73
66 66 66 66 66 66 67 67 67 68 68 69 70 69 69 69 68 68 68 69 69 69 68 70 71 72 73 72 73 73 73 74 75 74 74 74 74 73 73 73 73 73 73 73 72 75 74 73 71 70 71 68 67 68 64 61 60 60 60 60 62 62 67 67 66 67 68 68 69 70 70 71 71 71 71 71 71 71 72 72 72 72 72 72 71
66 66 66 66 66 67 67 67 67 67 68 69 70 69 69 69 69 69 69 69 69 69 68 70 72 71 72 73 73 73 73 73 74 74 74 74 73 73 72 73 73 74 73 72 73 73 72 72 71 70 69 69 70 70 64 61 60 62 61 61 57 59 63 61 63 66 66 67 69 69 70 70 70 71 70 70 71 70 71 71 71 71 71 71 71
66 66 66 66 67 68 68 68 68 68 68 69 70 70 70 70 70 69 70 69 69 70 70 70 70 71 71 73 73 73 73 72 73 74 74 74 73 73 72 72 73 74 74 73 72 72 71 71 71 71 69 67 67 67 67 65 64 60 57 58 58 58 55 57 60 63 66 66 67 67 69 69 69 69 69 70 71 70 70 70 71 71 71 71 71
66 66 66 67 67 67 68 68 68 68 68 70 70 70 71 70 70 70 71 70 70 70 69 70 69 70 70 72 73 73 73 73 73 74 74 73 73 73 72 72 73 73 74 73 72 72 73 72 72 71 69 67 66 66 68 65 63 61 61 59 56 54 55 57 61 60 65 64 65 66 69 67 67 69 69 69 69 70 70 70 70 70 71 71 71
66 66 67 67 67 68 68 69 69 69 69 69 70 70 70 70 69 69 68 68 68 68 68 68 69 69 69 71 72 73 73 73 73 73 74 74 74 73 72 72 73 74 74 73 73 72 72 72 73 72 70 68 67 66 64 69 64 67 63 60 59 56 57 59 59 57 62 66 64 64 66 66 66 68 68 68 69 70 71 71 70 71 71 71 71
65 67 67 67 68 68 68 69 70 70 70 70 70 71 70 70 69 68 68 68 68 68 68 68 69 69 70 71 72 73 73 72 73 72 73 74 74 73 73 73 73 74 75 73 73 73 73 73 73 72 71 71 67 65 64 64 64 65 68 66 68 67 61 59 57 57 57 60 61 63 64 64 65 67 67 68 69 69 70 71 71 71 71 71 71
65 66 67 67 67 68 68 69 70 71 70 70 70 71 70 70 69 69 69 68 68 68 68 68 69 70 70 71 72 72 73 73 72 73 73 73 74 74 73 73 73 74 75 74 73 73 73 73 74 73 72 71 69 67 65 63 62 62 66 65 68 67 63 63 60 59 59 57 57 60 61 62 63 65 66 67 68 69 69 69 70 70 71 71 70
65 66 67 67 68 68 68 69 69 70 70 70 70 70 70 70 70 69 69 69 68 68 69 69 69 71 70 71 72 72 73 73 73 73 73 73 74 74 74 73 73 74 75 74 74 74 73 73 73 73 72 72 70 69 66 64 61 61 62 62 63 64 63 64 63 63 60 57 57 58 58 60 61 62 63 65 67 68 69 69 70 71 71 71 70
65 66 66 67 68 68 68 69 69 70 70 70 71 70 70 70 70 69 69 69 69 69 69 69 69 70 69 71 71 72 72 73 73 73 73 73 74 74 74 74 74 74 75 75 74 74 74 73 73 73 73 72 71 70 68 65 62 60 62 62 61 62 60 60 61 61 61 60 58 58 59 58 59 60 62 63 64 66 67 68 69 71 71 70 70
65 66 66 67 67 68 68 68 69 69 70 70 71 70 70 70 69 69 69 69 69 69 69 69 69 69 68 70 71 72 72 72 73 73 73 73 73 74 74 74 74 75 75 75 74 74 74 74 74 73 73 72 71 70 70 69 65 62 61 62 61 61 60 60 59 60 60 58 58 58 59 59 58 58 60 62 64 65 66 66 67 69 70 70 70